This is the latest recevied weather packets stored in our database for station/object KD0OXW. If no packets are shown the sender has not sent any weather packets the latest 10 day(s).
| Time | Temp. | Humidity | Pressure | Rain* | Wind** | Luminosity | Snow |
|---|---|---|---|---|---|---|---|
| 1777329391 | 10.56° C | 97% | 997.1 hPa | 2.03 mm | - | - | - |
| 1777329091 | 10.56° C | 97% | 997.2 hPa | 2.03 mm | - | - | - |
| 1777328791 | 10.56° C | 97% | 997.3 hPa | 1.78 mm | - | - | - |
| 1777328491 | 10.56° C | 97% | 997.4 hPa | 2.03 mm | - | - | - |
| 1777328191 | 10.56° C | 97% | 997.4 hPa | 2.03 mm | - | - | - |
| 1777327891 | 10.56° C | 97% | 997.5 hPa | 2.29 mm | - | - | - |
| 1777327591 | 10.56° C | 97% | 997.6 hPa | 2.54 mm | - | - | - |
| 1777327291 | 10.56° C | 97% | 997.6 hPa | 2.79 mm | - | - | - |
| 1777326991 | 10.56° C | 97% | 997.7 hPa | 2.79 mm | - | - | - |
| 1777326691 | 10.56° C | 97% | 997.7 hPa | 3.05 mm | - | - | - |
| 1777326391 | 10.56° C | 97% | 997.9 hPa | 3.3 mm | - | - | - |
| 1777326091 | 10.56° C | 97% | 998 hPa | 3.3 mm | - | - | - |
| 1777325791 | 10.56° C | 97% | 998.1 hPa | 3.3 mm | - | - | - |
| 1777325491 | 10.56° C | 97% | 998.3 hPa | 3.81 mm | - | - | - |
| 1777325191 | 10.56° C | 97% | 998.3 hPa | 3.81 mm | - | - | - |
| 1777324891 | 10.56° C | 96% | 998.5 hPa | 3.81 mm | - | - | - |
| 1777324591 | 10.56° C | 96% | 998.5 hPa | 4.06 mm | - | - | - |
| 1777324291 | 10.56° C | 96% | 998.8 hPa | 3.56 mm | - | - | - |
| 1777323991 | 10.56° C | 96% | 998.8 hPa | 3.3 mm | - | - | - |
| 1777323691 | 10.56° C | 96% | 998.9 hPa | 3.3 mm | - | - | - |
| 1777323391 | 10.56° C | 96% | 998.9 hPa | 3.56 mm | - | - | - |
| 1777323091 | 10.56° C | 96% | 998.9 hPa | 3.56 mm | - | - | - |
| 1777322791 | 10.56° C | 96% | 999 hPa | 3.3 mm | - | - | - |
| 1777322491 | 10.56° C | 96% | 999.3 hPa | 3.05 mm | - | - | - |
| 1777322191 | 10.56° C | 96% | 999.4 hPa | 3.05 mm | - | - | - |
* Rain latest hour (hover to see other rain measurements)
** Current wind speed in m/s (hover to see current wind gust speed)